Location: Newark
(54.2833°N, 0.8333°W)
Time: 13:12:10
(UTC+00:00)

Envisat - Visible Passes

Search period start: 15 December 2019 00:00
Search period end: 25 December 2019 00:00
Orbit: 764 x 766 km, 98.1° (Epoch: 15 December)

Date Brightness Start Highest point End Pass type
(mag) Time Alt. Az. Time Alt. Az. Time Alt. Az.
15 Dec 4.2 06:33:20 10° NNE 06:38:14 45° E 06:43:07 10° S visible
15 Dec 4.0 16:17:07 10° ESE 16:21:06 24° NE 16:25:05 10° N visible
15 Dec 3.2 17:54:36 10° S 17:59:41 74° WSW 18:04:48 10° NNW visible
15 Dec 6.0 19:37:08 10° WSW 19:39:38 14° W 19:42:09 10° NW visible
16 Dec 5.4 05:57:00 10° NE 06:01:09 25° E 06:05:17 10° SE visible
16 Dec 3.0 17:17:55 10° SSE 17:22:56 61° ENE 17:27:57 10° N visible
16 Dec 5.1 18:58:10 10° SSW 19:02:21 25° W 19:06:34 10° NW visible
17 Dec 6.1 05:21:30 10° NE 05:23:51 13° E 05:26:12 10° ESE visible
17 Dec 3.3 06:58:44 10° NNE 07:03:50 72° ESE 07:08:54 10° S visible
17 Dec 3.6 16:41:48 10° SE 16:46:21 34° ENE 16:50:55 10° N visible
17 Dec 4.0 18:20:23 10° S 18:25:17 47° W 18:30:12 10° NNW visible
18 Dec 4.6 06:22:08 10° NNE 06:26:53 38° E 06:31:36 10° SSE visible
18 Dec 3.0 17:43:17 10° SSE 17:48:23 88° WSW 17:53:31 10° NNW visible
18 Dec 5.8 19:25:00 10° SW 19:28:11 16° W 19:31:22 10° NW visible
19 Dec 5.6 05:45:57 10° NE 05:49:44 21° E 05:53:30 10° SE visible
19 Dec 3.0 07:24:14 10° NNE 07:29:20 75° WNW 07:34:25 10° SSW visible
19 Dec 3.1 17:06:47 10° SE 17:11:41 51° ENE 17:16:37 10° N visible
19 Dec 4.8 18:46:30 10° SSW 18:50:57 30° W 18:55:27 10° NNW visible
20 Dec 6.3 05:11:19 10° ENE 05:12:23 11° E 05:13:26 10° E visible
20 Dec 3.7 06:47:28 10° NNE 06:52:31 59° ESE 06:57:32 10° S visible
20 Dec 3.8 16:30:49 10° ESE 16:35:09 29° ENE 16:39:30 10° N visible
20 Dec 3.6 18:08:56 10° S 18:13:56 57° W 18:18:58 10° NNW visible
20 Dec 6.3 19:53:46 10° W 19:54:07 10° W 19:54:29 10° WNW visible
21 Dec 4.9 06:10:58 10° NNE 06:15:31 32° E 06:20:01 10° SSE visible
21 Dec 2.9 17:32:01 10° SSE 17:37:06 78° ENE 17:42:13 10° NNW visible
21 Dec 5.5 19:13:03 10° SW 19:16:45 20° W 19:20:26 10° NW visible
22 Dec 5.9 05:35:00 10° NE 05:38:18 17° E 05:41:36 10° SE visible
22 Dec 3.0 07:12:56 10° NNE 07:18:04 89° WNW 07:23:09 10° SSW visible
22 Dec 3.3 16:55:41 10° SE 17:00:27 43° ENE 17:05:15 10° N visible
22 Dec 4.5 18:34:54 10° SSW 18:39:35 36° W 18:44:18 10° NNW visible
23 Dec 4.1 06:36:14 10° NNE 06:41:12 49° E 06:46:06 10° S visible
23 Dec 4.0 16:19:53 10° ESE 16:23:58 25° ENE 16:28:04 10° N visible
23 Dec 3.3 17:57:33 10° S 18:02:37 69° WSW 18:07:43 10° NNW visible
23 Dec 6.1 19:40:28 10° WSW 19:42:38 13° W 19:44:48 10° WNW visible
24 Dec 5.2 05:59:50 10° NE 06:04:07 26° E 06:08:22 10° SSE visible
24 Dec 2.9 17:20:49 10° SSE 17:25:50 65° ENE 17:30:54 10° N visible
24 Dec 5.3 19:01:16 10° SW 19:05:19 24° W 19:09:24 10° NW visible
